ACA724 CYYZ-KLGA

Flight info

Callsign ACA724
Flight time N/A
Altitude 29000
Route KEPTA3 BMPAH DCT AEVON DCT AUDIL DCT RKA HAARP4
Aircraft A320/M-SDE3FGHIRWY/LB1

Departure

Time 2026-05-05 01:19
Airport Toronto Pearson International Airport (CYYZ)

Arrival

Time N/A
Airport LaGuardia Airport (KLGA)
Time Latitude Longitude Altitude Speed Heading
2026-05-05 00:53 43.67798 -79.61266 565 ft 0 kts 121°
2026-05-05 01:04 43.67807 -79.61285 566 ft 2 kts 121°
2026-05-05 01:04 43.67815 -79.61304 566 ft 2 kts 122°
2026-05-05 01:05 43.67823 -79.61321 566 ft 2 kts 121°
2026-05-05 01:05 43.67831 -79.61339 566 ft 2 kts 121°
2026-05-05 01:05 43.67838 -79.61356 566 ft 2 kts 125°
2026-05-05 01:05 43.67850 -79.61370 567 ft 2 kts 150°
2026-05-05 01:06 43.67863 -79.61377 567 ft 0 kts 169°
2026-05-05 01:06 43.67869 -79.61378 567 ft 1 kts 174°
2026-05-05 01:06 43.67870 -79.61378 567 ft 0 kts 173°
2026-05-05 01:12 43.67840 -79.61387 566 ft 8 kts 207°
2026-05-05 01:13 43.67781 -79.61462 566 ft 12 kts 227°
2026-05-05 01:13 43.67722 -79.61549 567 ft 12 kts 226°
2026-05-05 01:13 43.67659 -79.61641 566 ft 13 kts 229°
2026-05-05 01:13 43.67613 -79.61707 565 ft 7 kts 222°
2026-05-05 01:14 43.67574 -79.61743 565 ft 7 kts 209°
2026-05-05 01:14 43.67522 -79.61723 564 ft 9 kts 137°
2026-05-05 01:14 43.67470 -79.61655 562 ft 11 kts 135°
2026-05-05 01:14 43.67409 -79.61573 561 ft 13 kts 136°
2026-05-05 01:15 43.67338 -79.61488 560 ft 14 kts 140°
2026-05-05 01:15 43.67265 -79.61384 558 ft 15 kts 135°
2026-05-05 01:15 43.67184 -79.61276 556 ft 17 kts 136°
2026-05-05 01:15 43.67160 -79.61140 553 ft 17 kts 47°
2026-05-05 01:16 43.67243 -79.61020 555 ft 17 kts 46°
2026-05-05 01:16 43.67325 -79.60902 556 ft 16 kts 46°
2026-05-05 01:16 43.67405 -79.60784 557 ft 17 kts 46°
2026-05-05 01:16 43.67489 -79.60661 556 ft 18 kts 47°
2026-05-05 01:17 43.67576 -79.60529 555 ft 19 kts 47°
2026-05-05 01:17 43.67670 -79.60393 554 ft 19 kts 44°
2026-05-05 01:17 43.67769 -79.60255 554 ft 20 kts 45°
2026-05-05 01:17 43.67870 -79.60112 553 ft 21 kts 46°
2026-05-05 01:18 43.67972 -79.59961 552 ft 21 kts 47°
2026-05-05 01:18 43.67915 -79.59824 548 ft 19 kts 135°
2026-05-05 01:18 43.67803 -79.59872 547 ft 26 kts 226°
2026-05-05 01:18 43.67497 -79.60318 546 ft 99 kts 226°
2026-05-05 01:19 43.66884 -79.61217 655 ft 146 kts 225°
2026-05-05 01:19 43.66201 -79.62232 1307 ft 147 kts 225°
2026-05-05 01:19 43.65515 -79.63218 2142 ft 142 kts 225°
2026-05-05 01:19 43.64840 -79.64170 2736 ft 146 kts 225°
2026-05-05 01:20 43.64070 -79.65223 3118 ft 163 kts 225°
2026-05-05 01:20 43.63213 -79.66376 3519 ft 181 kts 225°
2026-05-05 01:20 43.62255 -79.67656 3862 ft 204 kts 224°
2026-05-05 01:20 43.61191 -79.69064 4329 ft 222 kts 222°
2026-05-05 01:21 43.59773 -79.70076 4786 ft 247 kts 191°
2026-05-05 01:21 43.58013 -79.69666 5521 ft 270 kts 159°
2026-05-05 01:21 43.56548 -79.68011 6345 ft 285 kts 138°
2026-05-05 01:21 43.55210 -79.65962 7178 ft 290 kts 138°
2026-05-05 01:22 43.53950 -79.63753 7955 ft 302 kts 122°
2026-05-05 01:22 43.53254 -79.61008 8822 ft 313 kts 106°
2026-05-05 01:22 43.52803 -79.58048 9652 ft 318 kts 104°
2026-05-05 01:22 43.52361 -79.55073 10451 ft 323 kts 104°
2026-05-05 01:23 43.51852 -79.51995 10986 ft 339 kts 106°
2026-05-05 01:23 43.51273 -79.48807 11398 ft 356 kts 107°
2026-05-05 01:23 43.50629 -79.45447 11762 ft 374 kts 107°
2026-05-05 01:23 43.49928 -79.41878 12136 ft 390 kts 107°
2026-05-05 01:24 43.49215 -79.38276 12754 ft 396 kts 107°
2026-05-05 01:24 43.48492 -79.34641 13420 ft 400 kts 108°
2026-05-05 01:24 43.47747 -79.30911 14090 ft 404 kts 108°
2026-05-05 01:24 43.47003 -79.27193 14729 ft 408 kts 108°
2026-05-05 01:25 43.46244 -79.23418 15372 ft 412 kts 108°
2026-05-05 01:25 43.45486 -79.19649 15989 ft 415 kts 108°
2026-05-05 01:25 43.44703 -79.15806 16533 ft 419 kts 109°
2026-05-05 01:25 43.43803 -79.11999 17124 ft 421 kts 112°
2026-05-05 01:26 43.42726 -79.08242 17693 ft 424 kts 116°
2026-05-05 01:26 43.41576 -79.04509 18224 ft 427 kts 116°
2026-05-05 01:26 43.40403 -79.00754 18783 ft 430 kts 116°
2026-05-05 01:26 43.39212 -78.96950 19243 ft 434 kts 116°
2026-05-05 01:27 43.38031 -78.93171 19757 ft 438 kts 116°
2026-05-05 01:27 43.36822 -78.89294 20255 ft 442 kts 116°
2026-05-05 01:27 43.35617 -78.85435 20700 ft 446 kts 116°
2026-05-05 01:27 43.34374 -78.81463 21185 ft 450 kts 116°
2026-05-05 01:28 43.33139 -78.77517 21632 ft 453 kts 116°
2026-05-05 01:28 43.31890 -78.73530 22097 ft 457 kts 116°
2026-05-05 01:28 43.30632 -78.69526 22509 ft 462 kts 116°
2026-05-05 01:28 43.29342 -78.65423 22896 ft 466 kts 116°
2026-05-05 01:29 43.28064 -78.61370 23315 ft 469 kts 116°
2026-05-05 01:29 43.26758 -78.57230 23719 ft 473 kts 116°
2026-05-05 01:29 43.25458 -78.53116 24128 ft 476 kts 116°
2026-05-05 01:29 43.24136 -78.48935 24528 ft 479 kts 115°
2026-05-05 01:30 43.22784 -78.44675 24918 ft 482 kts 115°
2026-05-05 01:30 43.21435 -78.40430 25292 ft 485 kts 115°
2026-05-05 01:30 43.20038 -78.36154 25676 ft 486 kts 118°
2026-05-05 01:30 43.18401 -78.32084 26178 ft 483 kts 125°
2026-05-05 01:31 43.16475 -78.28267 26748 ft 477 kts 131°
2026-05-05 01:31 43.14393 -78.24702 27269 ft 475 kts 133°
2026-05-05 01:31 43.12291 -78.21223 27656 ft 476 kts 134°
2026-05-05 01:31 43.10149 -78.17696 27992 ft 479 kts 133°
2026-05-05 01:32 43.08006 -78.14153 28342 ft 481 kts 133°
2026-05-05 01:32 43.05861 -78.10590 28674 ft 483 kts 133°
2026-05-05 01:32 43.01575 -78.03451 28727 ft 484 kts 133°
2026-05-05 01:33 42.97332 -77.96389 28731 ft 483 kts 133°